Location: Colebrook
(42.0017°N, 73.0973°W)
Time: 13:11:41
(UTC-04:00)

Envisat - Pass Details

Date: 07 October 2021
Orbit: 764 x 766 km, 98.2° (Epoch: 22 October)

Event Time Altitude Azimuth Distance (km) Brightness Sun altitude
Rises 05:51:33 0° 15° (NNE) 3,239 6.5 -12.8°
Reaches altitude 10° 05:53:53 10° 18° (NNE) 2,309 5.8 -12.4°
Maximum altitude 05:58:57 69° 102° (ESE) 820 3.4 -11.4°
Drops below altitude 10° 06:03:59 10° 185° (S) 2,292 5.4 -10.5°
Sets 06:06:17 0° 188° (S) 3,214 6.1 -10.1°
